Date String (YYYY-MM-DD hh:mm:ss) UTC,Instrument flags,Ambient pressure (hPa),Sample flow (lpm),Bypass flow (lpm),Sample temperature (°C),Ambient temperature (°C),ASC tube jacket temperature (°C),LED temperature (°C),Box temperature (°C),Sample RH (%),Span deviation,Mass concentration (μg/m³),Mass concentration (μg/m³),Mass concentration (μg/m³)
DateTimeUTC,F1_M11,P_M11,Q1_M11,Q2_M11,T1_M11,T2_M11,T3_M11,T4_M11,T5_M11,U1_M11,ZSPAN_M11,X0_M11,X2_M11,X1_M11
2021-11-06 18:00:00,,0826.9,5.01,0.00,29.9,29.1,00.0,38.7,31.6,07.8,0000.0,0007.48,0003.12,0002.13
2021-11-06 18:01:00,,0826.7,5.00,0.00,29.9,29.1,00.0,38.8,31.7,07.7,0000.0,0005.59,0003.00,0002.07
2021-11-06 18:02:00,,0826.7,5.00,0.00,29.9,29.1,00.0,38.8,31.7,07.6,0000.0,0005.71,0002.96,0002.04
2021-11-06 18:03:00,,0826.7,5.00,0.00,29.9,29.1,00.0,38.8,31.7,08.1,0000.0,0006.70,0002.97,0002.03
2021-11-06 18:04:00,,0826.7,4.99,0.00,29.9,29.1,00.0,38.8,31.7,08.4,0000.0,0007.10,0003.01,0002.04
2021-11-06 18:05:00,,0826.7,5.01,0.00,30.0,29.1,00.0,38.8,31.7,08.4,0000.0,0008.79,0003.07,0002.07
2021-11-06 18:06:00,,0826.7,5.01,0.00,30.0,29.1,00.0,38.8,31.7,08.5,0000.0,0009.38,0003.03,0002.08
2021-11-06 18:07:00,,0826.9,5.01,0.00,30.0,29.2,00.0,38.9,31.8,08.5,0000.0,0009.55,0003.09,0002.09
2021-11-06 18:08:00,,0826.8,4.98,0.00,30.0,29.2,00.0,38.9,31.7,08.5,0000.0,0009.54,0003.09,0002.09
2021-11-06 18:09:00,,0826.7,5.00,0.00,30.0,29.2,00.0,38.9,31.7,08.6,0000.0,0009.42,0003.11,0002.12
2021-11-06 18:10:00,,0826.6,5.01,0.00,30.0,29.2,00.0,38.9,31.8,08.4,0000.0,0009.51,0003.15,0002.15
2021-11-06 18:11:00,,0826.7,5.01,0.00,30.0,29.2,00.0,38.9,31.8,08.4,0000.0,0009.61,0003.16,0002.17
2021-11-06 18:12:00,,0826.6,5.00,0.00,30.0,29.2,00.0,38.9,31.7,08.3,0000.0,0009.94,0003.21,0002.21
2021-11-06 18:13:00,,0826.6,5.00,0.00,30.0,29.2,00.0,38.9,31.7,08.1,0000.0,0009.96,0003.24,0002.23
2021-11-06 18:14:00,,0826.5,5.00,0.00,30.0,29.2,00.0,38.9,31.8,08.2,0000.0,0009.49,0003.25,0002.24
2021-11-06 18:15:00,,0826.5,4.98,0.00,30.1,29.3,00.0,39.0,31.8,08.2,0000.0,0009.96,0003.24,0002.25
2021-11-06 18:16:00,,0826.5,5.00,0.00,30.1,29.3,00.0,39.0,31.9,08.3,0000.0,0009.14,0003.25,0002.24
2021-11-06 18:17:00,,0826.5,5.00,0.00,30.1,29.3,00.0,39.0,31.9,08.2,0000.0,0008.66,0003.27,0002.23
2021-11-06 18:18:00,,0826.4,5.01,0.00,30.1,29.3,00.0,39.0,31.9,08.4,0000.0,0009.91,0003.27,0002.19
2021-11-06 18:19:00,,0826.4,4.99,0.00,30.1,29.3,00.0,39.0,31.9,08.4,0000.0,0011.51,0003.32,0002.20
2021-11-06 18:20:00,,0826.4,5.00,0.00,30.1,29.3,00.0,39.0,31.9,08.3,0000.0,0013.50,0003.39,0002.19
2021-11-06 18:21:00,,0826.4,4.99,0.00,30.2,29.4,00.0,39.1,31.9,08.2,0000.0,0014.35,0003.41,0002.17
2021-11-06 18:22:00,,0826.4,5.00,0.00,30.2,29.4,00.0,39.1,32.0,08.3,0000.0,0015.50,0003.41,0002.14
2021-11-06 18:23:00,,0826.4,5.00,0.00,30.2,29.4,00.0,39.1,32.0,08.4,0000.0,0016.09,0003.44,0002.13
2021-11-06 18:24:00,,0826.3,5.01,0.00,30.2,29.4,00.0,39.1,32.0,08.2,0000.0,0016.16,0003.46,0002.11
2021-11-06 18:25:00,,0826.3,5.01,0.00,30.2,29.4,00.0,39.1,32.0,07.8,0000.0,0016.92,0003.45,0002.09
2021-11-06 18:26:00,,0826.2,4.99,0.00,30.3,29.5,00.0,39.1,32.0,07.7,0000.0,0017.59,0003.45,0002.03
2021-11-06 18:27:00,,0826.2,4.99,0.00,30.3,29.5,00.0,39.1,32.0,07.7,0000.0,0018.52,0003.47,0001.98
2021-11-06 18:28:00,,0826.2,5.00,0.00,30.3,29.5,00.0,39.2,32.1,07.7,0000.0,0018.27,0003.48,0001.94
2021-11-06 18:29:00,,0826.1,5.00,0.00,30.3,29.5,00.0,39.2,32.1,07.8,0000.0,0017.81,0003.47,0001.92
2021-11-06 18:30:00,,0826.2,5.00,0.00,30.3,29.5,00.0,39.2,32.1,08.0,0000.0,0016.33,0003.38,0001.86
2021-11-06 18:31:00,,0826.1,5.00,0.00,30.4,29.6,00.0,39.2,32.1,07.9,0000.0,0014.62,0003.26,0001.80
2021-11-06 18:32:00,,0826.1,5.01,0.00,30.4,29.6,00.0,39.2,32.1,07.8,0000.0,0013.82,0003.19,0001.74
2021-11-06 18:33:00,,0826.0,5.00,0.00,30.4,29.6,00.0,39.2,32.1,07.9,0000.0,0012.64,0003.19,0001.72
2021-11-06 18:34:00,,0826.0,5.01,0.00,30.4,29.6,00.0,39.3,32.1,07.9,0000.0,0012.18,0003.18,0001.69
2021-11-06 18:35:00,,0826.0,5.00,0.00,30.4,29.6,00.0,39.3,32.2,07.8,0000.0,0012.72,0003.16,0001.66
2021-11-06 18:36:00,,0826.0,4.99,0.00,30.4,29.6,00.0,39.3,32.2,07.8,0000.0,0012.26,0003.14,0001.65
2021-11-06 18:37:00,,0825.9,5.01,0.00,30.5,29.7,00.0,39.3,32.2,07.7,0000.0,0011.84,0003.12,0001.64
2021-11-06 18:38:00,,0826.0,5.00,0.00,30.5,29.7,00.0,39.3,32.2,07.5,0000.0,0010.79,0003.07,0001.63
2021-11-06 18:39:00,,0825.9,5.00,0.00,30.5,29.7,00.0,39.4,32.3,07.7,0000.0,0010.73,0002.99,0001.61
2021-11-06 18:40:00,,0825.9,5.00,0.00,30.5,29.7,00.0,39.4,32.3,07.7,0000.0,0010.41,0002.95,0001.59
2021-11-06 18:41:00,,0826.0,5.00,0.00,30.5,29.8,00.0,39.4,32.3,07.8,0000.0,0010.65,0002.97,0001.59
2021-11-06 18:42:00,,0826.0,5.00,0.00,30.6,29.8,00.0,39.4,32.3,07.9,0000.0,0010.73,0003.07,0001.60
2021-11-06 18:43:00,,0825.9,5.01,0.00,30.6,29.8,00.0,39.4,32.3,08.1,0000.0,0010.92,0003.13,0001.62
2021-11-06 18:44:00,,0825.9,5.00,0.00,30.6,29.8,00.0,39.5,32.3,08.1,0000.0,0010.82,0003.12,0001.63
2021-11-06 18:45:00,,0825.9,4.99,0.00,30.6,29.8,00.0,39.5,32.4,08.2,0000.0,0010.64,0003.02,0001.64
2021-11-06 18:46:00,,0825.9,5.01,0.00,30.6,29.9,00.0,39.5,32.4,08.0,0000.0,0010.42,0003.06,0001.65
2021-11-06 18:47:00,,0825.9,5.00,0.00,30.6,29.9,00.0,39.5,32.4,08.0,0000.0,0011.57,0003.12,0001.67
2021-11-06 18:48:00,,0825.8,5.00,0.00,30.7,29.9,00.0,39.5,32.4,07.9,0000.0,0011.18,0003.13,0001.68
2021-11-06 18:49:00,,0826.0,4.99,0.00,30.7,29.9,00.0,39.6,32.4,07.8,0000.0,0010.85,0003.13,0001.70
2021-11-06 18:50:00,,0825.7,5.00,0.00,30.7,29.9,00.0,39.6,32.5,07.9,0000.0,0010.83,0003.16,0001.72
2021-11-06 18:51:00,,0825.7,5.00,0.00,30.7,29.9,00.0,39.6,32.4,07.7,0000.0,0010.65,0003.16,0001.73
2021-11-06 18:52:00,,0825.7,4.99,0.00,30.7,30.0,00.0,39.6,32.5,07.7,0000.0,0009.68,0003.13,0001.73
2021-11-06 18:53:00,,0825.7,5.01,0.00,30.8,30.0,00.0,39.6,32.5,07.6,0000.0,0009.87,0003.07,0001.72
2021-11-06 18:54:00,,0825.7,5.00,0.00,30.8,30.0,00.0,39.6,32.5,07.6,0000.0,0010.59,0003.00,0001.72
2021-11-06 18:55:00,,0825.7,5.00,0.00,30.8,30.0,00.0,39.7,32.5,07.5,0000.0,0010.66,0002.88,0001.70
2021-11-06 18:56:00,,0825.7,5.00,0.00,30.8,30.0,00.0,39.7,32.5,07.5,0000.0,0010.70,0002.84,0001.66
2021-11-06 18:57:00,,0825.7,5.01,0.00,30.8,30.1,00.0,39.7,32.5,07.5,0000.0,0010.94,0002.72,0001.63
2021-11-06 18:58:00,,0825.7,5.00,0.00,30.8,30.1,00.0,39.7,32.6,07.4,0000.0,0010.14,0002.68,0001.59
2021-11-06 18:59:00,,0825.7,4.99,0.00,30.9,30.1,00.0,39.7,32.6,07.5,0000.0,0009.62,0002.65,0001.56
